Date,TemperatureHighF,TemperatureAvgF,TemperatureLowF,DewpointHighF,DewpointAvgF,DewpointLowF,HumidityHigh,HumidityAvg,HumidityLow,PressureMaxIn,PressureMinIn,WindSpeedMaxMPH,WindSpeedAvgMPH,GustSpeedMaxMPH,PrecipitationSumIn
2013-9-1,84.5,76.1,69.4,71.6,69.3,65.8,95,80,60,29.81,29.74,11,0,11,0.00
2013-9-2,87.6,75.3,66.9,73.3,69.2,62.2,94,82,59,29.84,29.74,14,1,14,0.02
2013-9-3,71.5,63.5,53.3,62.2,55.5,50.7,91,76,56,30.07,29.84,12,1,12,0.00
2013-9-4,82.4,64.6,48.0,61.8,55.2,46.6,100,75,46,30.14,30.06,11,0,11,0.00
2013-9-5,82.2,67.8,56.2,66.0,58.3,48.2,95,74,47,30.20,30.09,12,1,12,0.00
2013-9-6,78.3,61.0,46.2,53.3,48.5,42.3,100,68,29,30.27,30.12,8,0,8,0.00
2013-9-7,85.1,66.0,47.3,65.2,55.9,45.9,100,73,42,30.12,29.93,10,0,10,0.00
2013-9-8,87.2,75.3,66.1,70.9,66.0,63.0,90,74,56,30.00,29.90,10,0,10,0.00
2013-9-9,89.9,74.4,60.7,71.4,66.2,59.0,95,78,49,30.05,29.95,14,0,14,0.00
2013-9-10,92.9,81.7,72.5,75.9,71.8,67.9,88,73,55,30.09,30.00,17,1,17,0.00
2013-9-11,89.9,77.2,70.8,75.1,71.3,67.4,94,83,55,30.12,29.98,17,0,17,0.31
2013-9-12,76.5,72.7,65.8,71.2,68.4,60.3,94,87,75,29.98,29.82,16,1,16,0.25
2013-9-13,65.6,59.2,49.2,60.6,51.4,45.8,90,76,56,30.08,29.85,18,2,18,0.00
2013-9-14,70.8,54.7,41.2,48.9,44.9,39.6,100,73,40,30.18,30.08,11,0,11,0.00
2013-9-15,73.5,60.1,41.5,59.4,51.9,40.0,100,76,49,30.18,30.04,7,0,12,0.00
2013-9-16,72.5,62.2,54.1,59.7,55.3,50.0,96,80,50,30.30,30.04,13,1,13,0.09
2013-9-17,73.7,59.1,46.2,56.5,51.2,44.8,100,78,50,30.35,30.20,9,0,9,0.01
2013-9-18,74.2,61.1,52.5,63.7,56.7,50.0,94,86,68,30.20,30.08,5,0,5,0.00
2013-9-19,71.8,66.4,62.4,67.4,64.6,60.7,100,94,83,30.10,29.99,8,0,8,0.08
2013-9-20,84.7,74.0,66.3,71.7,68.3,65.4,100,84,61,30.01,29.78,14,1,14,0.00
2013-9-21,73.7,65.5,55.0,66.9,60.6,50.9,97,85,52,29.84,29.67,21,1,21,1.22
2013-9-22,67.6,56.1,47.4,51.5,47.7,44.3,95,75,47,30.04,29.84,12,1,12,0.00
2013-9-23,66.0,52.2,39.9,50.6,44.2,38.3,100,77,49,30.15,30.04,13,0,13,0.00
2013-9-24,70.6,53.1,37.9,50.8,45.0,36.6,100,77,44,30.14,29.96,7,0,7,0.00
2013-9-25,76.8,57.7,43.3,56.9,49.9,41.7,100,78,41,29.97,29.87,7,0,7,0.00
2013-9-26,81.4,62.6,47.9,58.2,50.8,43.1,100,71,28,30.08,29.92,10,0,10,0.00
2013-9-27,80.1,60.8,44.5,56.6,50.6,42.9,100,73,39,30.18,30.08,9,0,9,0.00
2013-9-28,78.8,61.3,46.0,58.3,52.1,44.7,100,75,41,30.21,30.08,10,0,10,0.00
2013-9-29,74.7,62.1,51.3,62.6,56.9,49.5,99,84,64,30.09,29.99,8,0,8,0.00
2013-9-30,73.3,64.2,59.2,62.0,59.4,57.5,95,85,63,30.04,29.95,12,0,12,0.00